Madrid, Spain

7:42 AM CEST on April 26, 2017 (GMT +0200)
Madrid-Barajas Airport

Weather History for LEMD - January, 2013

Change the Weather History Date:

Sunday, January 20, 2013

  Actual Average Record
Temperature  
Mean Temperature 42 °F -  
Max Temperature 48 °F 52 °F 64 °F (1998)
Min Temperature 37 °F 32 °F 26 °F (1999)
Degree Days  
Heating Degree Days 22    
Moisture  
Dew Point 33 °F    
Average Humidity 69    
Maximum Humidity 100    
Minimum Humidity 42    
Precipitation  
Precipitation 0.01 in 0.06 in - ()
Sea Level Pressure  
Sea Level Pressure 29.57 in    
Wind  
Wind Speed 11 mph ()    
Max Wind Speed 20 mph    
Max Gust Speed 33 mph    
Visibility 7.1 miles    
Events Rain    
Averages and records for this station are not official NWS values.
T = Trace of Precipitation, MM = Missing Value Source: Averaged Metar Reports

Daily Weather History Graph

Daily Weather History Graph

Search for Another Location

Airport or City:

Trip Planner

Search our weather history database for the weather conditions in past years. The results will help you decide how hot, cold, wet, or windy it might be!

Date:

Astronomy

Jan. 20, 2013 Rise Set
Actual Time 8:32 AM CET 6:18 PM CET
Civil Twilight 8:03 AM CET 6:47 PM CET
Nautical Twilight 7:29 AM CET 7:21 PM CET
Astronomical Twilight 6:57 AM CET 7:53 PM CET
Moon 1:10 PM CET (1/20) 2:51 AM CET (1/20)
Length of Visible Light 10h 44m
Length of Day
9h 45m
Waxing Gibbous, 64% of the Moon is Illuminated
Jan 20
Waxing Gibbous
Jan 27
Full
Feb 3
Last Quarter
Feb 10
New
Feb 17
First Quarter

Hourly Weather History & Observations

Time (CET) Temp. Windchill Dew Point Humidity Pressure Visibility Wind Dir Wind Speed Gust Speed Precip Events Conditions
12:00 AM 42.8 °F 37.5 °F 33.8 °F 70% 29.30 in 6.2 mi West 9.2 mph - N/A   Partly Cloudy
12:30 AM 42.8 °F 37.0 °F 33.8 °F 70% 29.30 in 6.2 mi WNW 10.4 mph - N/A   Partly Cloudy
1:00 AM 43 °F - 32 °F 55% 29.35 in 19 mi WNW 13.8 mph - -   Partly Cloudy
1:00 AM 42.8 °F 35.8 °F 32.0 °F 66% 29.33 in 6.2 mi WNW 13.8 mph - N/A   Partly Cloudy
1:30 AM 42.8 °F 36.6 °F 33.8 °F 70% 29.33 in 6.2 mi West 11.5 mph - N/A   Scattered Clouds
2:00 AM 42.8 °F 34.8 °F 32.0 °F 66% 29.33 in 6.2 mi West 17.3 mph - N/A   Scattered Clouds
2:30 AM 44.6 °F 37.4 °F 32.0 °F 61% 29.36 in 6.2 mi West 16.1 mph 32.2 mph N/A   Scattered Clouds
3:00 AM 42.8 °F 34.5 °F 32.0 °F 66% 29.36 in 6.2 mi WNW 18.4 mph 31.1 mph N/A   Scattered Clouds
3:30 AM 42.8 °F 35.8 °F 32.0 °F 66% 29.42 in 6.2 mi West 13.8 mph - N/A   Scattered Clouds
4:00 AM 41.0 °F 31.9 °F 32.0 °F 70% 29.42 in 6.2 mi NW 19.6 mph - N/A   Partly Cloudy
4:30 AM 42.8 °F 38.0 °F 30.2 °F 61% 29.44 in 6.2 mi South 8.1 mph - N/A   Scattered Clouds
5:00 AM 41.0 °F 34.7 °F 30.2 °F 65% 29.47 in 6.2 mi North 10.4 mph - N/A   Partly Cloudy
5:30 AM 41.0 °F 37.1 °F 32.0 °F 70% 29.47 in 6.2 mi West 5.8 mph - N/A   Partly Cloudy
6:00 AM 41.0 °F 34.3 °F 30.2 °F 65% 29.50 in 6.2 mi West 11.5 mph - N/A   Partly Cloudy
6:30 AM 41.0 °F 33.5 °F 30.2 °F 65% 29.50 in 6.2 mi West 13.8 mph - N/A   Partly Cloudy
7:00 AM 39 °F - 29 °F 55% 29.58 in 19 mi West 13.8 mph - -   Scattered Clouds
7:00 AM 41.0 °F 33.1 °F 30.2 °F 65% 29.53 in 6.2 mi WNW 15.0 mph - N/A   Partly Cloudy
7:30 AM 39.2 °F - 30.2 °F 70% 29.53 in 6.2 mi South 2.3 mph - N/A   Partly Cloudy
8:00 AM 37.4 °F - 30.2 °F 75% 29.56 in 6.2 mi Calm Calm - N/A   Partly Cloudy
8:30 AM 37.4 °F - 30.2 °F 75% 29.59 in 6.2 mi Variable 2.3 mph - N/A   Partly Cloudy
9:00 AM 41.0 °F 32.8 °F 28.4 °F 61% 29.59 in 6.2 mi West 16.1 mph - N/A   Partly Cloudy
9:30 AM 42.8 °F 36.2 °F 30.2 °F 61% 29.59 in 6.2 mi West 12.7 mph 24.2 mph N/A   Partly Cloudy
10:00 AM 42.8 °F 36.2 °F 30.2 °F 61% 29.62 in 6.2 mi West 12.7 mph - N/A   Partly Cloudy
10:30 AM 44.6 °F 38.4 °F 30.2 °F 57% 29.62 in 6.2 mi West 12.7 mph - N/A   Partly Cloudy
11:00 AM 42.8 °F 36.6 °F 30.2 °F 61% 29.65 in 6.2 mi West 11.5 mph - N/A   Partly Cloudy
11:30 AM 44.6 °F 38.8 °F 32.0 °F 61% 29.68 in 6.2 mi WSW 11.5 mph - N/A   Partly Cloudy
12:00 PM 44.6 °F 38.8 °F 30.2 °F 57% 29.68 in 6.2 mi WSW 11.5 mph - N/A   Partly Cloudy
12:30 PM 46.4 °F 40.1 °F 30.2 °F 53% 29.68 in 6.2 mi West 15.0 mph - N/A   Partly Cloudy
1:00 PM 46 °F - 30 °F 42% 29.70 in 19 mi WSW 17.3 mph - -   Scattered Clouds
1:00 PM 46.4 °F 39.8 °F 32.0 °F 57% 29.68 in 6.2 mi West 16.1 mph 32.2 mph N/A   Partly Cloudy
1:30 PM 46.4 °F 39.5 °F 32.0 °F 57% 29.65 in 6.2 mi WSW 17.3 mph - N/A   Partly Cloudy
2:00 PM 46.4 °F 40.1 °F 30.2 °F 53% 29.65 in 6.2 mi West 15.0 mph 28.8 mph N/A   Partly Cloudy
2:30 PM 48.2 °F - 30.2 °F 50% 29.65 in 6.2 mi WSW 12.7 mph 26.5 mph N/A   Partly Cloudy
3:00 PM 48.2 °F - 32.0 °F 54% 29.65 in 6.2 mi WSW 17.3 mph - N/A   Scattered Clouds
3:30 PM 48.2 °F - 30.2 °F 50% 29.65 in 6.2 mi WSW 15.0 mph 33.4 mph N/A   Scattered Clouds
4:00 PM 48.2 °F - 33.8 °F 58% 29.65 in 6.2 mi WSW 12.7 mph - N/A   Scattered Clouds
4:30 PM 46.4 °F 40.7 °F 33.8 °F 62% 29.65 in 6.2 mi WSW 12.7 mph - N/A   Scattered Clouds
5:00 PM 44.6 °F 37.2 °F 33.8 °F 66% 29.65 in 6.2 mi SW 17.3 mph - N/A   Mostly Cloudy
5:30 PM 42.8 °F 35.4 °F 37.4 °F 81% 29.68 in 6.2 mi SW 15.0 mph - N/A   Light Drizzle
6:00 PM 42.8 °F 35.8 °F 35.6 °F 76% 29.65 in 6.2 mi SW 13.8 mph - N/A Rain Light Rain
6:30 PM 42.8 °F 35.8 °F 37.4 °F 81% 29.65 in 6.2 mi SW 13.8 mph - N/A   Light Drizzle
7:00 PM 42 °F - 36 °F 72% 29.70 in 16 mi SSW 9.2 mph - - Rain Light Rain
7:00 PM 42.8 °F 37.5 °F 37.4 °F 81% 29.65 in 6.2 mi SSW 9.2 mph - N/A   Mostly Cloudy
7:30 PM 42.8 °F 36.6 °F 39.2 °F 87% 29.65 in 6.2 mi SW 11.5 mph 28.8 mph N/A Rain Light Rain
8:00 PM 42.8 °F 35.1 °F 41.0 °F 93% 29.65 in 6.2 mi SSW 16.1 mph - N/A Rain Light Rain
8:30 PM 42.8 °F 36.6 °F 41.0 °F 93% 29.65 in 6.2 mi SSW 11.5 mph - N/A   Mostly Cloudy
9:00 PM 42.8 °F 35.4 °F 41.0 °F 93% 29.65 in 6.2 mi SW 15.0 mph - N/A   Mostly Cloudy
9:30 PM 42.8 °F 36.6 °F 41.0 °F 93% 29.65 in 6.2 mi SSW 11.5 mph - N/A   Mostly Cloudy
10:00 PM 42.8 °F 36.6 °F 42.8 °F 100% 29.62 in 6.2 mi SSW 11.5 mph - N/A   Mostly Cloudy
10:30 PM 42.8 °F 37.5 °F 41.0 °F 93% 29.62 in 6.2 mi South 9.2 mph - N/A   Mostly Cloudy
11:00 PM 42.8 °F 38.0 °F 41.0 °F 93% 29.62 in 6.2 mi South 8.1 mph 26.5 mph N/A   Mostly Cloudy
11:30 PM 42.8 °F 38.0 °F 41.0 °F 93% 29.62 in 6.2 mi South 8.1 mph - N/A   Mostly Cloudy